Lid_Strength_Index
3 2 3 2 2 2 2 2 2 2 3 3 3 3 3 3 3 4 9 5 4 -2 1 5 6 3 5 4 4 4 10 13 12 12 11 7 8 5 4 6 5 4 5 3 2
3 3 3 3 3 2 2 2 2 2 3 3 4 4 3 3 4 7 2 -0 -2 -1 7 8 7 5 7 5 5 7 10 11 8 8 9 8 8 7 7 7 7 6 4 2 2
3 4 4 4 3 3 2 2 2 3 3 3 3 4 3 2 4 4 -1 -2 -3 -1 7 8 5 6 8 5 6 7 10 8 8 7 7 8 8 6 7 8 6 6 5 4 3
4 4 4 4 3 3 3 3 3 3 3 3 3 3 2 3 8 2 -3 -3 -3 4 6 8 6 6 9 7 6 9 7 7 7 7 7 8 7 8 7 6 4 4 4 3 4
3 3 3 3 3 3 3 3 3 3 3 3 3 2 3 4 4 -0 -3 -2 3 5 6 6 5 7 9 7 7 8 8 7 6 6 7 6 8 7 7 5 4 4 4 4 4
3 3 3 3 3 3 3 3 3 3 3 3 2 2 3 6 0 -1 -0 2 4 5 6 5 6 7 6 7 8 7 7 7 6 7 6 8 8 7 7 4 5 4 4 4 4
3 3 3 3 3 3 3 4 4 4 3 3 2 2 4 5 -0 1 2 4 4 6 7 6 5 6 5 8 5 6 9 8 8 7 8 7 10 10 6 5 5 5 4 4 3
3 3 3 3 3 3 4 4 4 3 3 2 2 2 5 1 -0 2 3 5 5 6 6 5 6 4 5 5 7 9 9 12 9 8 7 8 12 8 6 6 6 5 5 4 4
3 3 3 3 3 4 5 4 3 2 2 1 3 3 6 0 2 1 2 4 5 6 6 6 4 5 6 8 10 10 12 12 11 7 8 8 11 8 6 7 7 6 5 5 4
3 3 3 3 3 4 5 4 1 1 1 2 2 5 4 5 4 3 1 3 4 6 7 7 8 7 7 9 11 11 12 12 12 9 9 10 10 8 7 7 7 6 5 5 4
3 3 3 4 4 5 5 3 5 5 3 5 5 5 4 3 4 4 3 4 6 6 9 9 9 9 8 8 8 9 10 11 10 9 10 10 10 9 7 7 7 7 6 5 4
3 3 4 4 4 5 6 4 6 6 8 5 5 4 3 4 6 5 4 6 7 8 8 8 9 8 9 8 8 8 10 11 10 9 9 10 11 9 8 7 7 7 6 5 5
3 4 4 4 5 5 7 5 5 5 7 6 5 4 4 3 5 5 4 6 7 8 8 8 8 8 9 9 9 9 10 11 11 10 9 10 12 11 8 7 7 6 6 5 5
4 4 5 6 5 6 6 5 6 5 7 7 6 4 4 4 6 4 3 5 7 8 8 8 7 8 10 10 8 10 8 9 11 12 13 10 14 12 10 9 8 7 6 5 5
4 4 5 6 6 5 6 5 6 5 13 6 6 4 5 6 5 5 4 5 7 7 8 8 8 10 10 10 8 9 8 9 10 11 12 12 14 12 10 11 9 7 6 5 4
4 5 6 6 6 5 5 5 5 8 14 8 6 6 7 6 7 6 5 4 5 7 7 8 7 7 7 7 6 7 9 9 10 12 13 12 13 11 12 10 9 7 6 5 4
5 6 6 5 6 5 5 4 9 12 7 8 8 7 7 8 7 7 7 7 8 9 9 8 8 7 6 8 7 8 10 14 15 14 14 11 13 11 9 8 8 7 6 5 4
6 7 6 5 4 6 5 6 12 10 9 7 8 8 8 8 8 8 7 8 8 8 9 10 11 8 7 7 9 9 9 11 15 14 12 12 14 10 8 7 6 6 5 5 4
7 6 6 5 5 5 6 10 10 9 8 8 9 9 9 8 8 8 8 8 7 7 9 10 10 7 7 7 6 9 11 9 11 12 13 12 11 8 7 8 7 6 6 6 5
7 8 7 6 5 6 8 11 9 8 7 8 10 9 9 9 9 9 9 7 8 7 7 7 10 8 8 6 6 7 6 11 10 15 15 13 13 11 10 9 7 7 6 6 5
8 9 8 6 8 8 11 10 8 6 6 8 9 9 9 9 9 9 9 8 7 8 7 7 8 8 7 8 9 8 9 10 10 11 13 14 11 8 8 8 8 7 6 6 5
9 10 7 7 10 11 11 9 9 6 6 8 8 8 8 9 9 9 8 7 6 6 8 8 8 9 9 8 8 8 9 9 11 14 12 12 11 7 7 7 7 7 6 5 5
10 10 6 7 13 11 11 10 9 8 7 8 8 7 8 8 9 8 8 7 7 6 7 7 9 11 10 9 8 9 8 8 9 10 13 13 10 7 7 7 6 6 6 5 5
9 11 8 7 9 10 10 9 9 7 6 6 7 7 8 8 8 8 8 7 7 6 5 6 9 9 11 10 8 9 9 9 9 11 12 11 10 8 8 8 7 6 6 5 5
8 10 8 9 9 10 9 10 9 8 6 6 7 8 8 8 9 9 8 7 7 5 9 7 9 10 10 9 9 9 9 9 9 9 11 9 10 7 7 7 7 6 6 5 5
9 9 8 9 10 10 11 10 10 8 7 7 8 7 7 8 7 8 7 7 7 7 8 9 10 8 9 9 9 9 8 8 9 9 9 9 9 6 6 6 6 6 6 5 5
6 6 7 10 10 10 11 9 9 7 6 6 7 7 8 7 6 6 5 6 6 6 7 7 9 9 11 9 9 11 9 8 8 8 8 10 8 7 7 7 7 6 6 6 5